CZ-6A DEB

Satellite information

Favourite Embed

Satellite Type and Status

DEBRISIN ORBIT

Key statistics

Satellite CZ-6A DEB at a glance.

Uptime

1129

Days in orbit

Revolutions

≈ 14.1

Per day

Orbit

SSO

Sun Synchronous Orbit

Inclination

98.8

Latest

Satellite identification and parameters

Extended collection of information and parameters for CZ-6A DEB.

Object identification

Identified? True

Debris? True

Object name: CZ-6A DEB

International designator: 2022-151QK

Object number (NORAD): 54898

Object ID (CCSDS): 54898

Country: PEOPLES REPUBLIC OF CHINA (PRC)

Current information (Y/N): Y

RCS size: SMALL

Orbital parameters

Period: 102.39 minutes

Inclination: 98.8367 deg

SMA: 7249.916 km

Apoapsis: 930.137 km

Periapsis: 813.425 km

RAAN: 335.3262 deg

Eccentricy: 0.00804919

Argument of periapsis: 189.042 deg

Mean anomaly: 170.9304 deg

Mean motion: 14.06381976 rev/day

Mean motion (dot): 0.00000648 rev/day2

B* drag term: 0.00040631278 1/REarth

Two-line elements (TLE)

Creation date: Dec. 14, 2025, 3:07 a.m.

Reference frame: TEME

Reference center: EARTH

Epoch: Dec. 13, 2025, 12:29 p.m. UTC

TLE line 0: 0 CZ-6A DEB

TLE line 1: 1 54898U 22151QK 25347.52023555 .00000648 00000-0 40631-3 0 9998

TLE line 2: 2 54898 98.8367 335.3262 0080492 189.0420 170.9304 14.06381976155547

Live tracking on map

Real-time ground track for satellite CZ-6A DEB.

In-orbit conjunctions

A list of the most updated potential collisions computed for object CZ-6A DEB.

Target Orbit TCA Probability of collision Miss distance Type
DELTA 1 DEB SSO 2025-08-12 11:38:02 0.0001444582 88.0 (m) DEBRIS
GGSE 1 (GGRS) LEO 2024-09-18 07:11:22 0.001307167 197.0 (m) PAYLOAD

Associated space launch

Chinese satellite reported for atmospheric/ocean/environmental/spatial parameter research purposes, details TBD.

CZ-6A DEB was lifted into orbit during the mission ‘Long March 6A | Yunhai 3’, on board a Long March 6A space rocket.

The launch took place on Nov. 11, 2022, 10:52 p.m. from Launch Complex 9A.

For more information about the launch, click the button.

Launch to space Long March 6A | Yunhai 3
Long March 6A | Yunhai 3

Agency: N/A

Status: Launch Successful

Launch date: Nov. 11, 2022, 10:52 p.m. UTC

Rocket: Long March 6A

Launch pad: Launch Complex 9A

Location: Taiyuan Satellite Launch Center, People's Republic of China

...

Latest news about this satellite

There are no fresh news available about this satellite. Check back as we update our databases every day.


Newsletter sign-up

Weekly statistics, charts and insights to help you stay on top of the space industry.